B1012 ZGGG-ZSAM

Flight info

Callsign B1012
Flight time 0h 44m
Altitude 25600
Route LMN9 LMN G471 XEBUL DCT NUVGA DCT VETIB W155 TEBON TEBON8X
Aircraft C700/M-SBDGHM1RWXY/LB2

Departure

Time 2026-05-05 14:21
Airport Guangzhou Baiyun International Airport (ZGGG)

Arrival

Time 2026-05-05 15:05
Airport Xiamen Gaoqi International Airport (ZSAM)
Time Latitude Longitude Altitude Speed Heading
2026-05-05 14:08 23.38007 113.30061 53 ft 0 kts 194°
2026-05-05 14:14 23.38012 113.30063 53 ft 2 kts 194°
2026-05-05 14:15 23.38031 113.30068 50 ft 3 kts 194°
2026-05-05 14:15 23.38051 113.30073 50 ft 3 kts 194°
2026-05-05 14:15 23.38071 113.30078 52 ft 3 kts 189°
2026-05-05 14:15 23.38091 113.30079 51 ft 3 kts 165°
2026-05-05 14:16 23.38105 113.30069 53 ft 2 kts 109°
2026-05-05 14:16 23.38108 113.30057 50 ft 3 kts 104°
2026-05-05 14:16 23.38111 113.30044 53 ft 0 kts 104°
2026-05-05 14:18 23.38099 113.30085 52 ft 15 kts 104°
2026-05-05 14:19 23.38071 113.30209 50 ft 18 kts 103°
2026-05-05 14:19 23.38036 113.30255 53 ft 9 kts 162°
2026-05-05 14:19 23.37967 113.30239 52 ft 12 kts 194°
2026-05-05 14:19 23.37887 113.30219 52 ft 7 kts 183°
2026-05-05 14:20 23.37846 113.30272 52 ft 15 kts 100°
2026-05-05 14:20 23.37836 113.30363 52 ft 9 kts 115°
2026-05-05 14:20 23.37812 113.30428 50 ft 9 kts 98°
2026-05-05 14:20 23.37788 113.30534 52 ft 18 kts 105°
2026-05-05 14:21 23.37850 113.30607 52 ft 16 kts 23°
2026-05-05 14:21 23.38142 113.30689 51 ft 89 kts 13°
2026-05-05 14:21 23.39046 113.30938 274 ft 167 kts 14°
2026-05-05 14:21 23.40364 113.31296 686 ft 207 kts 14°
2026-05-05 14:22 23.41760 113.31655 1062 ft 206 kts 14°
2026-05-05 14:22 23.43178 113.32019 1549 ft 210 kts 14°
2026-05-05 14:22 23.44607 113.32386 2043 ft 212 kts 15°
2026-05-05 14:22 23.46057 113.32758 2537 ft 217 kts 14°
2026-05-05 14:23 23.47630 113.33167 3047 ft 237 kts 14°
2026-05-05 14:23 23.49276 113.33595 3546 ft 247 kts 13°
2026-05-05 14:23 23.51006 113.34042 4057 ft 267 kts 13°
2026-05-05 14:23 23.52819 113.34513 4568 ft 273 kts 13°
2026-05-05 14:24 23.54666 113.35041 5067 ft 277 kts 20°
2026-05-05 14:24 23.56167 113.36348 5533 ft 282 kts 56°
2026-05-05 14:24 23.56761 113.38370 6017 ft 284 kts 87°
2026-05-05 14:24 23.56722 113.40509 6506 ft 288 kts 94°
2026-05-05 14:25 23.56728 113.42702 6988 ft 291 kts 87°
2026-05-05 14:25 23.57038 113.44898 7468 ft 295 kts 78°
2026-05-05 14:25 23.57476 113.47091 7953 ft 298 kts 79°
2026-05-05 14:25 23.57828 113.49319 8446 ft 300 kts 82°
2026-05-05 14:26 23.58142 113.51580 8946 ft 303 kts 81°
2026-05-05 14:26 23.58488 113.53852 9453 ft 306 kts 80°
2026-05-05 14:26 23.58848 113.56150 9962 ft 309 kts 80°
2026-05-05 14:26 23.59212 113.58531 10429 ft 337 kts 80°
2026-05-05 14:27 23.59606 113.61112 10910 ft 352 kts 80°
2026-05-05 14:27 23.60012 113.63795 11511 ft 366 kts 80°
2026-05-05 14:27 23.60444 113.66621 12138 ft 385 kts 80°
2026-05-05 14:27 23.60889 113.69550 12776 ft 395 kts 80°
2026-05-05 14:28 23.61342 113.72530 13420 ft 402 kts 80°
2026-05-05 14:28 23.61770 113.75367 13997 ft 406 kts 80°
2026-05-05 14:28 23.62235 113.78424 14578 ft 410 kts 80°
2026-05-05 14:28 23.62700 113.81505 15160 ft 414 kts 79°
2026-05-05 14:29 23.63171 113.84620 15753 ft 419 kts 79°
2026-05-05 14:29 23.63645 113.87772 16359 ft 423 kts 79°
2026-05-05 14:29 23.64124 113.90950 16975 ft 427 kts 79°
2026-05-05 14:29 23.64606 113.94166 17603 ft 432 kts 79°
2026-05-05 14:30 23.65098 113.97419 18249 ft 437 kts 79°
2026-05-05 14:30 23.65588 114.00701 18805 ft 440 kts 79°
2026-05-05 14:30 23.66084 114.04010 19374 ft 443 kts 79°
2026-05-05 14:30 23.66582 114.07341 19949 ft 447 kts 79°
2026-05-05 14:31 23.67084 114.10705 20535 ft 451 kts 79°
2026-05-05 14:31 23.67590 114.14104 21134 ft 455 kts 79°
2026-05-05 14:31 23.68099 114.17523 21741 ft 459 kts 79°
2026-05-05 14:31 23.68613 114.20975 22368 ft 463 kts 79°
2026-05-05 14:32 23.69128 114.24463 23002 ft 468 kts 79°
2026-05-05 14:32 23.69649 114.27985 23642 ft 473 kts 79°
2026-05-05 14:32 23.70179 114.31544 24182 ft 477 kts 78°
2026-05-05 14:32 23.70709 114.35138 24755 ft 482 kts 78°
2026-05-05 14:33 23.71240 114.38760 25326 ft 486 kts 78°
2026-05-05 14:33 23.71782 114.42435 25599 ft 493 kts 78°
2026-05-05 14:33 23.72324 114.46117 25597 ft 491 kts 78°
2026-05-05 14:33 23.72862 114.49805 25598 ft 492 kts 78°
2026-05-05 14:34 23.73401 114.53481 25601 ft 491 kts 78°
2026-05-05 14:34 23.73938 114.57161 25605 ft 491 kts 78°
2026-05-05 14:34 23.74468 114.60788 25605 ft 490 kts 78°
2026-05-05 14:34 23.75018 114.64548 25608 ft 502 kts 78°
2026-05-05 14:35 23.75557 114.68267 25611 ft 502 kts 78°
2026-05-05 14:35 23.76104 114.72046 25615 ft 504 kts 78°
2026-05-05 14:35 23.76650 114.75824 25617 ft 504 kts 78°
2026-05-05 14:35 23.77199 114.79603 25617 ft 504 kts 78°
2026-05-05 14:36 23.77745 114.83384 25618 ft 504 kts 78°
2026-05-05 14:36 23.78287 114.87161 25618 ft 504 kts 78°
2026-05-05 14:36 23.78831 114.90946 25623 ft 504 kts 78°
2026-05-05 14:36 23.79376 114.94727 25622 ft 504 kts 78°
2026-05-05 14:37 23.79918 114.98516 25620 ft 505 kts 78°
2026-05-05 14:37 23.80462 115.02306 25622 ft 505 kts 78°
2026-05-05 14:37 23.81001 115.06096 25624 ft 506 kts 78°
2026-05-05 14:37 23.81543 115.09889 25625 ft 506 kts 78°
2026-05-05 14:38 23.82083 115.13684 25626 ft 505 kts 78°
2026-05-05 14:38 23.82620 115.17471 25626 ft 506 kts 78°
2026-05-05 14:38 23.83155 115.21242 25628 ft 507 kts 78°
2026-05-05 14:38 23.83693 115.25042 25629 ft 506 kts 79°
2026-05-05 14:39 23.84231 115.28849 25630 ft 507 kts 79°
2026-05-05 14:39 23.84767 115.32656 25631 ft 507 kts 78°
2026-05-05 14:39 23.85305 115.36467 25627 ft 507 kts 79°
2026-05-05 14:39 23.85840 115.40273 25627 ft 506 kts 79°
2026-05-05 14:40 23.86373 115.44077 25626 ft 507 kts 79°
2026-05-05 14:40 23.86905 115.47884 25625 ft 508 kts 79°
2026-05-05 14:40 23.87438 115.51701 25629 ft 507 kts 79°
2026-05-05 14:40 23.87969 115.55508 25630 ft 507 kts 79°
2026-05-05 14:41 23.88502 115.59320 25630 ft 508 kts 79°
2026-05-05 14:41 23.89033 115.63142 25635 ft 509 kts 79°
2026-05-05 14:41 23.89563 115.66977 25636 ft 510 kts 79°
2026-05-05 14:41 23.90092 115.70806 25636 ft 510 kts 79°
2026-05-05 14:42 23.90622 115.74637 25637 ft 510 kts 79°
2026-05-05 14:42 23.91155 115.78477 25639 ft 511 kts 79°
2026-05-05 14:42 23.91681 115.82316 25634 ft 511 kts 79°
2026-05-05 14:42 23.92206 115.86149 25637 ft 510 kts 79°
2026-05-05 14:43 23.92734 115.89983 25635 ft 510 kts 79°
2026-05-05 14:43 23.93261 115.93829 25641 ft 511 kts 79°
2026-05-05 14:43 23.93785 115.97671 25637 ft 511 kts 79°
2026-05-05 14:43 23.94308 116.01510 25638 ft 510 kts 79°
2026-05-05 14:44 23.94829 116.05350 25646 ft 511 kts 79°
2026-05-05 14:44 23.95354 116.09195 25641 ft 512 kts 79°
2026-05-05 14:44 23.95871 116.13002 25644 ft 513 kts 79°
2026-05-05 14:44 23.96391 116.16861 25642 ft 512 kts 79°
2026-05-05 14:45 23.96914 116.20732 25649 ft 513 kts 79°
2026-05-05 14:45 23.97113 116.22207 25648 ft 513 kts 79°
2026-05-05 14:45 23.97321 116.23750 25652 ft 513 kts 79°
2026-05-05 14:45 23.97836 116.27566 25648 ft 514 kts 79°
2026-05-05 14:46 23.98354 116.31430 25652 ft 513 kts 79°
2026-05-05 14:46 23.98872 116.35296 25647 ft 514 kts 79°
2026-05-05 14:46 23.99389 116.39160 25647 ft 514 kts 79°
2026-05-05 14:46 23.99906 116.43026 25648 ft 514 kts 79°
2026-05-05 14:47 24.00423 116.46900 25648 ft 515 kts 79°
2026-05-05 14:47 24.00938 116.50772 25648 ft 515 kts 79°
2026-05-05 14:47 24.01451 116.54645 25653 ft 515 kts 79°
2026-05-05 14:47 24.01964 116.58517 25646 ft 515 kts 79°
2026-05-05 14:48 24.02478 116.62394 25648 ft 515 kts 79°
2026-05-05 14:48 24.02991 116.66278 25654 ft 516 kts 79°
2026-05-05 14:48 24.03501 116.70161 25645 ft 516 kts 79°
2026-05-05 14:48 24.04011 116.74044 25644 ft 516 kts 79°
2026-05-05 14:49 24.04522 116.77927 25646 ft 516 kts 79°
2026-05-05 14:49 24.05030 116.81806 25464 ft 510 kts 79°
2026-05-05 14:49 24.05520 116.85581 24835 ft 493 kts 79°
2026-05-05 14:49 24.05836 116.88018 24417 ft 484 kts 79°
2026-05-05 14:50 24.06307 116.91617 23795 ft 474 kts 79°
2026-05-05 14:50 24.06773 116.95176 23124 ft 468 kts 79°
2026-05-05 14:50 24.07229 116.98685 22507 ft 465 kts 80°
2026-05-05 14:50 24.07831 117.03355 21695 ft 462 kts 80°
2026-05-05 14:51 24.08129 117.05655 21291 ft 459 kts 80°
2026-05-05 14:51 24.08575 117.09099 20698 ft 455 kts 80°
2026-05-05 14:51 24.09015 117.12524 20095 ft 453 kts 81°
2026-05-05 14:51 24.09453 117.15922 19507 ft 449 kts 81°
2026-05-05 14:52 24.09884 117.19294 18921 ft 445 kts 81°
2026-05-05 14:52 24.10453 117.23716 18116 ft 441 kts 81°
2026-05-05 14:52 24.10734 117.25910 17720 ft 437 kts 82°
2026-05-05 14:52 24.11150 117.29179 17150 ft 432 kts 82°
2026-05-05 14:53 24.11564 117.32432 16590 ft 427 kts 82°
2026-05-05 14:53 24.11972 117.35633 16032 ft 421 kts 82°
2026-05-05 14:53 24.12376 117.38803 15486 ft 419 kts 82°
2026-05-05 14:53 24.12773 117.41938 14934 ft 412 kts 83°
2026-05-05 14:54 24.13166 117.45026 14402 ft 406 kts 83°
2026-05-05 14:54 24.13784 117.47962 13875 ft 387 kts 71°
2026-05-05 14:54 24.14828 117.50595 13359 ft 369 kts 61°
2026-05-05 14:54 24.16196 117.52894 12891 ft 353 kts 51°
2026-05-05 14:55 24.17787 117.54863 12444 ft 339 kts 45°
2026-05-05 14:55 24.19357 117.56738 12011 ft 330 kts 46°
2026-05-05 14:55 24.20889 117.58589 11580 ft 326 kts 45°
2026-05-05 14:55 24.22398 117.60393 11163 ft 324 kts 45°
2026-05-05 14:56 24.23913 117.62202 10733 ft 321 kts 45°
2026-05-05 14:56 24.25420 117.64007 10313 ft 320 kts 45°
2026-05-05 14:56 24.26920 117.65810 9890 ft 318 kts 45°
2026-05-05 14:56 24.28407 117.67592 9433 ft 314 kts 45°
2026-05-05 14:57 24.29871 117.69347 8987 ft 310 kts 45°
2026-05-05 14:57 24.31319 117.71083 8579 ft 306 kts 45°
2026-05-05 14:57 24.32732 117.72783 8184 ft 298 kts 45°
2026-05-05 14:57 24.34108 117.74438 7797 ft 290 kts 45°
2026-05-05 14:58 24.35452 117.76050 7426 ft 283 kts 45°
2026-05-05 14:58 24.36766 117.77628 7054 ft 277 kts 45°
2026-05-05 14:58 24.38055 117.79177 6695 ft 273 kts 45°
2026-05-05 14:58 24.39178 117.80840 6321 ft 272 kts 60°
2026-05-05 14:59 24.39831 117.82769 5955 ft 269 kts 76°
2026-05-05 14:59 24.40031 117.84594 5639 ft 264 kts 86°
2026-05-05 14:59 24.40169 117.86586 5298 ft 260 kts 84°
2026-05-05 14:59 24.40330 117.88546 4955 ft 256 kts 85°
2026-05-05 15:00 24.40474 117.90479 4610 ft 253 kts 85°
2026-05-05 15:00 24.40567 117.91745 4389 ft 250 kts 84°
2026-05-05 15:00 24.41196 117.94140 3926 ft 243 kts 61°
2026-05-05 15:00 24.42163 117.95630 3606 ft 234 kts 51°
2026-05-05 15:01 24.43159 117.96977 3314 ft 221 kts 52°
2026-05-05 15:01 24.44072 117.98277 3026 ft 210 kts 53°
2026-05-05 15:01 24.44946 117.99489 2759 ft 201 kts 52°
2026-05-05 15:01 24.45792 118.00674 2493 ft 194 kts 54°
2026-05-05 15:02 24.46595 118.01817 2258 ft 181 kts 52°
2026-05-05 15:02 24.47354 118.02856 2030 ft 169 kts 53°
2026-05-05 15:02 24.48035 118.03839 1803 ft 156 kts 52°
2026-05-05 15:02 24.48696 118.04736 1604 ft 147 kts 52°
2026-05-05 15:03 24.49284 118.05586 1403 ft 130 kts 53°
2026-05-05 15:03 24.49820 118.06320 1246 ft 115 kts 50°
2026-05-05 15:03 24.50313 118.07025 1090 ft 119 kts 53°
2026-05-05 15:03 24.50824 118.07731 942 ft 118 kts 50°
2026-05-05 15:04 24.51324 118.08430 794 ft 112 kts 55°
2026-05-05 15:04 24.51802 118.09113 648 ft 113 kts 53°
2026-05-05 15:04 24.52292 118.09782 489 ft 113 kts 55°
2026-05-05 15:04 24.52767 118.10463 370 ft 111 kts 54°
2026-05-05 15:05 24.53728 118.11811 62 ft 105 kts 54°
2026-05-05 15:05 24.54111 118.12354 50 ft 68 kts 53°
2026-05-05 15:05 24.54339 118.12665 49 ft 45 kts 50°
2026-05-05 15:06 24.54476 118.12871 44 ft 17 kts 66°
2026-05-05 15:06 24.54514 118.12997 47 ft 9 kts 79°
2026-05-05 15:06 24.54528 118.13080 47 ft 13 kts 78°
2026-05-05 15:06 24.54555 118.13228 46 ft 27 kts 78°
2026-05-05 15:07 24.54654 118.13396 44 ft 17 kts 58°
2026-05-05 15:07 24.54618 118.13451 44 ft 12 kts 178°
2026-05-05 15:07 24.54553 118.13378 45 ft 18 kts 232°
2026-05-05 15:07 24.54454 118.13236 46 ft 29 kts 232°
2026-05-05 15:08 24.54311 118.13034 45 ft 35 kts 232°
2026-05-05 15:08 24.54217 118.12900 45 ft 8 kts 232°
2026-05-05 15:08 24.54214 118.12895 46 ft 0 kts 234°
2026-05-05 15:09 24.54213 118.12894 46 ft 3 kts 234°
2026-05-05 15:09 24.54154 118.12799 48 ft 21 kts 234°
2026-05-05 15:09 24.54128 118.12762 47 ft 6 kts 232°
2026-05-05 15:09 24.54102 118.12726 50 ft 0 kts 227°
2026-05-05 15:10 24.54098 118.12722 47 ft 2 kts 226°
2026-05-05 15:10 24.54085 118.12730 50 ft 4 kts 59°
2026-05-05 15:10 24.54087 118.12743 50 ft 4 kts 112°
2026-05-05 15:10 24.54082 118.12746 50 ft 0 kts 155°